Overview Statistics Trail Chart Weather Telemetry Raw packets
 

This is the latest recevied weather packets stored in our database for station/object W8RSN-13. If no packets are shown the sender has not sent any weather packets the latest 10 day(s).

<< 47 48 49 50 51 52 53 >>
Time Temp. Humidity Pressure Rain* Wind** Luminosity Snow
1788361770 18.33° C 61% 1018.1 hPa - - - -
1788361469 18.33° C 60% 1018 hPa - - - -
1788361168 18.33° C 61% 1018.1 hPa - - - -
1788360867 18.33° C 62% 1018.2 hPa - - - -
1788360566 17.78° C 63% 1018.2 hPa - - - -
1788360265 17.22° C 64% 1018.2 hPa - - - -
1788359965 17.22° C 62% 1018.1 hPa - - - -
1788359664 17.22° C 64% 1017.9 hPa - - - -
1788359363 16.67° C 65% 1018 hPa - - - -
1788359062 16.67° C 65% 1018.1 hPa - - - -
1788358761 16.67° C 66% 1018.1 hPa - - - -
1788358460 16.11° C 67% 1017.9 hPa - - - -
1788358159 16.11° C 67% 1018 hPa - - - -
1788357858 15.56° C 68% 1017.9 hPa - - - -
1788357558 15.56° C 67% 1017.9 hPa - - - -
1788357257 15.56° C 68% 1017.6 hPa - - - -
1788356956 15.56° C 70% 1017.5 hPa - - - -
1788356675 15° C 69% 1017.8 hPa - - - -
1788356374 15° C 69% 1017.8 hPa - - - -
1788356073 15° C 71% 1017.7 hPa - - - -
1788355772 15° C 72% 1017.7 hPa - - - -
1788355471 14.44° C 70% 1017.7 hPa - - - -
1788355170 14.44° C 71% 1017.7 hPa - - - -
1788354869 14.44° C 71% 1017.6 hPa - - - -
1788354569 15° C 73% 1017.5 hPa - - - -

* Rain since midnight (hover to see other rain measurements)
** Current wind speed in m/s (hover to see current wind gust speed)